Theta_e
320 322 324 327 328 329 330 330 330 330 330 329 329 329 329 329 329 329 329 329 329 329 329 329 328 328 329 329 329 329 329 328 328 328 328 327 327 327 327 327 326 326
315 317 319 321 323 324 325 326 326 327 327 328 328 328 328 328 328 328 328 328 328 328 328 328 328 328 328 328 328 328 328 328 328 328 328 327 327 327 327 327 326 326
309 311 314 316 317 318 319 320 321 322 323 324 325 326 326 326 326 326 326 326 326 326 326 327 327 327 327 327 327 327 327 328 327 327 327 327 327 327 327 326 326 326
306 307 308 310 312 313 314 315 316 317 318 319 319 320 321 321 321 321 321 322 323 323 323 323 324 324 325 325 326 327 327 327 327 327 327 327 327 326 326 326 326 326
306 306 306 307 308 310 312 313 313 314 314 315 315 315 315 316 316 316 316 317 318 318 318 319 319 320 321 322 323 324 325 326 326 326 326 326 326 326 326 326 326 326
306 306 306 306 307 308 310 311 312 312 312 312 313 313 312 312 313 313 313 313 314 314 315 315 315 316 317 318 319 320 321 323 324 325 325 325 325 325 325 326 325 326
305 305 306 306 307 309 310 311 312 312 312 312 311 311 311 311 311 311 311 311 312 312 312 312 312 313 313 314 315 316 317 319 320 322 323 324 324 324 324 325 325 325
306 306 307 308 309 310 311 311 311 311 311 311 311 311 311 311 311 311 311 311 311 311 311 311 311 311 311 311 311 312 313 315 316 318 320 321 322 323 323 324 324 324
306 307 308 308 309 310 310 310 310 310 310 310 310 310 310 310 310 311 311 311 311 311 310 310 310 310 310 310 310 311 311 312 313 315 317 318 320 321 321 322 323 323
304 304 305 306 307 308 309 309 310 310 309 309 309 309 309 309 310 310 311 311 311 311 311 310 310 310 310 310 309 310 310 311 312 312 313 315 316 317 318 319 320 321
302 302 302 303 303 304 306 307 308 309 309 309 308 309 309 309 310 310 310 310 310 310 310 310 310 309 309 309 309 309 309 309 310 310 311 312 312 313 314 315 317 317
299 299 299 300 300 301 302 303 305 307 308 308 308 308 308 309 309 309 309 310 310 310 310 310 310 309 309 309 309 308 308 308 308 309 309 309 309 310 311 312 313 314
296 296 296 297 298 299 300 300 301 303 304 306 307 307 308 308 308 309 309 309 309 309 309 309 309 309 308 308 308 307 307 307 307 307 307 307 307 307 308 309 310 312
293 294 295 296 296 297 298 298 299 300 301 302 304 305 306 306 307 307 308 308 308 308 308 308 307 307 307 307 307 307 306 306 305 305 305 305 306 306 306 307 307 309
291 293 294 295 295 296 296 297 297 298 298 299 300 301 303 304 304 305 305 306 306 306 306 306 305 305 305 305 305 305 305 305 304 304 304 304 304 305 305 305 305 306
288 290 291 293 293 293 294 294 295 296 296 297 298 298 299 301 301 302 302 303 304 304 304 304 303 302 303 302 302 303 303 303 303 303 303 303 303 303 304 304 304 304
285 286 288 289 290 291 291 292 293 294 295 295 296 296 297 298 299 299 300 301 301 302 303 302 301 301 301 301 301 301 301 301 302 302 302 302 302 302 302 303 303 304
284 285 285 286 287 288 289 290 291 292 293 294 294 294 295 295 296 297 297 298 299 300 301 300 299 299 299 299 299 299 300 300 300 300 300 300 300 300 301 301 302 302
284 284 285 285 285 286 287 288 288 289 291 292 292 292 293 293 294 294 295 296 296 298 299 299 298 297 297 297 297 297 297 297 298 298 298 299 299 299 300 300 300 300
283 284 285 285 285 286 286 287 287 287 288 290 291 291 291 292 292 292 293 294 294 295 297 297 296 296 296 296 296 296 295 295 296 297 297 298 298 298 299 299 299 299
283 283 283 284 285 285 286 286 287 287 287 288 289 289 289 290 290 291 291 292 292 293 294 294 294 294 295 294 294 295 294 294 294 295 296 297 297 297 298 298 298 298
281 281 282 283 284 285 285 286 287 287 287 288 288 288 288 288 288 288 289 290 290 290 290 290 291 292 292 292 292 293 293 293 294 294 295 296 296 296 296 296 296 295
279 280 281 282 283 284 285 286 287 287 287 287 287 287 287 287 287 286 287 287 287 287 287 287 288 290 290 290 290 291 292 292 293 294 294 295 295 294 293 293 294 294
278 279 280 281 282 283 285 285 286 287 286 287 287 286 286 286 286 285 285 285 285 285 285 285 286 288 288 288 288 289 289 290 291 291 292 292 292 292 292 292 293 293
278 278 279 281 282 283 284 285 286 286 286 286 286 285 285 285 285 284 284 284 284 284 284 285 285 286 286 287 287 288 288 288 288 289 289 290 290 290 290 290 291 291
278 278 279 280 282 282 283 284 284 285 285 285 285 284 284 284 284 284 284 284 284 285 285 285 285 285 285 286 287 287 288 288 287 288 288 288 288 289 288 289 289 289
Wind_Speed
17 21 24 26 27 28 29 30 30 29 29 29 30 30 31 30 29 29 28 28 29 29 30 30 31 31 32 32 33 33 34 33 33 34 33 33 34 33 33 34 34 33
15 14 16 19 21 24 25 27 29 29 28 29 29 29 29 28 27 26 26 26 27 27 28 28 29 30 31 31 32 32 32 32 33 33 33 33 33 33 34 34 34 35
18 16 14 14 16 18 20 22 23 24 25 25 25 25 25 25 24 23 23 23 24 25 25 25 27 28 29 30 30 31 31 31 32 32 32 33 33 33 34 34 34 34
20 18 17 15 14 14 15 17 18 19 19 19 19 19 20 19 19 19 19 20 20 21 22 22 24 25 26 27 28 29 30 30 31 31 31 32 32 32 33 33 33 33
23 21 19 18 16 15 14 14 14 14 15 15 14 14 14 14 14 15 15 15 16 17 17 18 20 20 22 23 25 27 28 29 31 30 30 31 31 32 32 31 31 32
26 24 22 21 19 17 16 14 13 12 11 11 11 10 10 10 10 11 12 13 13 14 15 15 15 16 17 18 20 23 25 26 28 28 29 31 31 31 31 30 31 31
27 25 23 21 18 16 15 13 11 10 10 10 10 10 10 10 10 11 11 12 13 13 13 13 13 13 13 15 17 19 21 23 24 25 27 28 29 30 30 29 30 30
27 24 21 18 15 13 11 11 10 10 10 11 11 11 12 12 12 12 12 12 12 12 12 12 12 12 12 13 15 17 18 20 21 22 25 26 26 27 28 27 28 29
26 23 19 16 13 10 8 7 7 8 10 11 12 13 14 14 14 14 14 13 12 12 12 12 12 13 13 14 15 17 18 19 20 21 23 25 25 26 27 26 26 27
28 26 23 21 18 16 12 9 8 8 9 10 12 13 14 15 15 16 16 16 15 14 13 14 14 14 15 15 15 16 17 18 19 20 22 24 25 26 27 26 26 27
31 30 29 27 25 23 20 16 13 10 10 11 12 13 14 15 16 16 17 17 17 17 17 17 16 16 16 17 16 16 17 18 19 20 21 23 24 26 26 27 27 28
34 34 33 32 30 27 24 22 19 15 13 12 12 13 14 15 16 16 17 18 18 18 18 19 18 18 17 18 18 17 18 19 19 21 22 23 24 25 26 26 27 28
36 35 35 33 32 30 27 25 23 21 18 15 14 14 14 15 16 17 17 18 19 19 19 20 20 19 18 18 19 18 18 19 20 21 22 23 24 25 25 26 26 27
35 35 35 34 33 31 28 27 25 24 22 19 17 15 15 15 16 17 19 19 20 21 21 22 22 21 20 19 19 19 19 20 21 22 23 25 25 26 26 26 27 27
34 34 34 34 33 32 29 28 27 26 24 22 20 18 16 16 16 17 19 20 21 22 22 23 23 22 21 20 19 20 20 21 22 23 24 26 26 27 27 26 26 27
33 33 33 33 32 31 30 29 28 28 27 25 24 22 20 18 17 17 17 19 20 22 22 22 21 20 20 19 18 18 19 20 22 23 23 24 26 27 28 28 27 26
32 32 32 31 31 31 30 30 29 29 28 28 27 27 25 23 21 19 18 18 19 21 22 22 21 20 19 19 17 16 17 18 20 22 22 22 24 26 28 29 28 27
32 31 30 30 30 31 30 30 30 29 29 29 30 30 29 28 26 24 22 20 20 21 22 22 21 20 19 18 17 15 15 16 18 20 21 22 24 25 27 28 28 29
31 31 30 30 29 29 29 29 28 28 28 29 30 31 31 31 30 29 27 24 22 22 23 23 22 21 20 18 17 16 15 15 17 19 21 23 24 24 26 27 28 29
29 30 31 31 29 28 28 27 26 27 27 28 29 30 31 32 32 32 30 28 25 24 24 24 22 21 20 18 17 18 17 16 18 19 21 23 24 24 25 26 27 27
29 30 31 30 29 28 27 26 25 25 26 27 28 28 29 30 31 31 30 29 26 24 24 23 21 20 18 17 17 18 18 18 18 20 21 22 24 23 23 25 25 25
31 31 31 30 29 28 27 25 25 25 26 27 28 28 28 28 28 27 27 26 25 23 22 21 19 17 15 16 16 17 18 18 19 20 22 23 24 24 22 23 23 22
33 31 31 30 29 29 27 25 24 25 26 26 27 28 28 26 25 23 22 21 21 20 20 19 17 15 14 15 16 16 17 18 19 20 22 24 25 24 22 21 20 18
33 30 29 29 29 27 26 25 25 24 25 25 24 25 27 26 24 22 19 17 18 19 18 17 15 15 15 15 15 15 15 16 17 18 20 22 24 24 22 20 20 19
32 29 27 27 25 24 24 25 25 23 23 23 21 21 23 24 22 21 20 19 18 19 18 16 15 17 17 16 15 15 15 16 17 16 17 19 21 24 24 22 20 19
31 27 24 23 23 23 24 23 23 22 21 21 20 19 20 20 19 19 21 20 19 18 17 17 17 19 18 16 16 16 15 16 17 16 17 20 21 23 26 26 23 22
Wind_Direction
288 274 267 264 263 263 264 265 266 266 265 265 265 266 268 271 274 275 274 274 274 272 272 271 269 267 265 264 262 259 257 255 255 255 253 252 251 250 250 250 249 249
335 313 292 281 277 275 274 273 272 271 270 270 270 271 272 273 274 273 273 273 272 272 273 272 271 270 267 266 264 260 258 256 256 257 255 254 253 252 251 252 251 251
358 349 332 314 300 293 289 284 280 278 276 276 276 275 276 276 276 275 274 273 272 271 272 271 271 270 269 269 267 263 260 258 258 259 257 255 255 253 253 254 253 253
356 354 349 339 324 311 302 295 291 289 287 287 287 286 285 283 283 282 280 278 277 276 275 273 272 271 271 270 269 267 264 263 263 262 259 258 257 255 256 255 254 254
344 345 345 341 334 325 317 311 307 304 301 298 297 297 294 291 290 289 289 287 284 282 280 277 275 274 273 272 270 268 267 266 266 264 260 259 259 257 257 257 256 256
336 336 337 334 330 325 321 321 321 318 314 311 311 311 308 307 307 306 305 300 295 291 287 285 284 282 280 278 274 271 269 267 267 265 261 260 261 260 259 257 256 257
332 331 331 329 327 324 321 322 325 326 327 328 333 336 334 332 330 328 321 312 305 299 296 296 295 295 295 291 285 280 275 272 270 267 263 261 262 261 260 258 256 257
336 331 328 325 324 327 328 331 336 337 336 336 338 338 336 334 333 331 327 321 313 307 306 306 303 305 307 302 295 290 284 280 275 270 267 265 263 263 263 261 259 259
349 343 338 334 331 329 326 327 331 332 331 329 329 328 326 326 325 323 321 319 316 313 311 308 306 308 309 306 302 298 292 288 283 278 274 271 268 267 267 266 264 262
355 353 350 349 346 341 334 325 315 314 316 317 318 319 318 317 316 315 315 313 311 310 308 307 308 309 309 309 307 304 299 295 291 286 282 279 276 275 274 272 269 267
350 350 349 349 348 346 343 338 328 317 312 312 311 312 313 313 313 312 311 309 308 308 306 307 309 311 311 312 311 309 304 300 298 294 289 286 284 281 279 277 274 272
345 345 345 344 342 341 340 338 335 327 319 314 309 308 309 309 310 311 311 309 308 307 306 305 305 307 309 311 311 310 307 304 300 297 294 292 290 287 285 282 278 276
342 342 341 340 338 337 335 333 333 330 326 320 311 307 306 304 304 304 306 307 307 306 305 303 302 302 303 305 307 309 308 305 302 299 297 295 292 291 289 286 283 279
341 339 338 337 335 334 332 331 331 330 329 327 320 312 307 305 303 301 301 302 302 303 303 303 303 303 303 302 302 305 305 303 302 300 298 296 294 292 290 288 286 283
340 338 336 336 335 333 331 331 332 332 332 331 328 323 317 311 306 303 302 300 298 298 299 300 304 306 306 306 304 304 302 300 299 298 297 295 294 293 291 289 288 286
339 338 337 336 336 335 333 332 333 333 334 334 333 331 327 321 315 310 307 305 303 301 299 301 307 308 308 308 307 305 302 299 297 296 295 294 293 292 292 291 290 290
338 337 337 337 337 336 335 334 333 334 335 335 335 334 331 329 325 321 317 314 310 307 304 307 313 315 314 314 312 308 303 300 297 295 294 293 291 290 291 292 293 292
337 335 336 336 336 336 336 335 335 335 337 338 337 335 333 331 330 328 325 322 317 311 307 311 318 322 323 323 321 315 308 302 297 295 294 292 290 289 289 291 293 293
336 335 333 333 334 334 334 335 335 335 338 338 337 334 332 330 330 329 328 326 323 317 311 313 320 325 327 329 326 319 313 305 298 295 294 292 291 291 291 291 292 293
334 334 332 331 331 331 330 331 331 331 334 336 335 332 330 328 328 327 327 326 324 321 315 316 323 326 327 328 323 317 314 309 302 297 294 293 292 292 293 293 293 292
331 331 331 329 329 329 327 326 326 326 329 331 331 329 326 325 325 324 323 322 322 321 317 318 325 328 327 326 320 314 313 312 307 303 299 296 295 296 295 295 295 294
330 329 328 327 327 326 323 321 321 322 325 327 327 324 323 323 323 321 319 318 319 320 318 320 327 330 328 326 321 314 312 312 310 307 303 300 299 300 300 299 299 299
330 327 325 324 324 323 320 317 316 319 323 325 323 322 321 321 321 319 317 316 318 319 320 323 331 338 337 332 328 323 319 318 315 310 307 305 305 307 309 308 308 308
328 325 321 320 319 317 316 314 313 316 321 322 320 318 317 317 318 318 317 318 320 321 324 326 332 342 345 340 338 338 335 332 329 320 314 313 312 313 313 313 312 313
323 321 318 316 313 310 311 312 311 312 316 318 316 314 314 313 315 317 317 320 322 324 330 335 338 346 351 348 346 347 345 342 340 331 321 319 318 317 317 316 315 317
321 319 313 310 307 306 309 311 310 308 310 312 312 312 313 312 312 313 315 320 325 327 333 340 344 350 355 354 350 350 347 344 343 336 326 322 321 320 320 319 320 322